User: anonymous   Login
Location: São Paulo
(23.5507°S, 46.6334°W)
Time: 18:04:54
(UTC-03:00)
Language:

Courier 1B Rocket - Orbit

View from above orbital plane
View from above orbital plane
View from above satellite
View from above satellite

Ground track
Ground track

The orbit is defined by the following mean orbital elements,

1 00059U          26049.14595100 +.00000000 +00000-0 +58244-4 0 00000
2 00059  28.2498  15.2061 0188880  36.4515 324.8730 13.53161946    07
Epoch (UTC): 18 February 2026 03:30:10
Eccentricity: 0.0188880
inclination: 28.2498°
perigee height: 920 km
apogee height: 1201 km
right ascension of ascending node: 15.2061°
argument of perigee: 36.4515°
revolutions per day: 13.53161946
mean anomaly at epoch: 324.8730°

The dashed part of the orbit path shows where the satellite is in the earth's shadow,  

DLR